SL-23 DEB, 43385

Orbit data source: Space-Track

SL-23 DEB, 43385 is space debris originally from a launch on Thu, 26 Feb 2009 UTC launched from the Tyuratam Missile And Space Complex (TTMTR). Debris objects in space refer to the collection of defunct objects orbiting the Earth. Examples of debris include non-operational satellites, rocket bodies, and fragments generated from explosions, collisions, or faulty payload assembly.

Loading next visibility...
SL-23 DEB details
Identifier
43385, 2009-009D
Orbit
Molniya
Last TLE update4 days ago
Origin
Flag of CISSIS (CIS)
ManufacturerUnknown
MissionSpacecraft
Bus & MotorUnknown
MassUnknown
Launch date (UTC)
2009-02-26 (16 years ago)
Launch vehicleUnknown
Launch site
Tyuratam Missile And Space Complex (TTMTR)
Object type
Payload
Rocket body
Debris
Shape & HBRUnknown
Radar Cross SectionMedium (>0.1 m² and <1 m²)

Expand to show TLE details & history

TLE from 4 days ago
0 SL-23 DEB
1 43385U 09009D   24344.25940368 -.00000261  00000-0  00000-0 0  9995
2 43385  34.8096 345.9691 6951621  78.9355 351.8661  2.21223038 92249
Epoch: 2024-12-09T06:13Z
Definitive object data (Epoch: 2024-12-09T06:13:32.477Z)
Latitude13.17863°
Longitude-166.32319°
Altitude2,813.765 km
Speed8.409 km/s
True Right ascension00h 22m 11s
True Declination13° 07' 10"
Sunlit
Object was in daylight at TLE epoch
Visualization TLE readout
Latitude-23.04872°
Longitude30.66049°
Altitude22,329.671 km
Speed3.428 km/s
Apparent Right ascension14h 12m 42s
Apparent Declination-30° 54' 15"
Sunlit
Object is in daylight
Visualization observer readout
Local Sidereal Time08:32:02
Azimuth117.247° SE
Elevation-15.911°
Doppler factor1
Orbital elements
Apogee altitude35,801.447 km
Perigee altitude1,206.941 km
Semi-major axis24,882.331 km
Eccentricity0.6951621
Inclination34.8096°
RAAN345.9691°
Arg. of periapsis78.9355°
True anomaly304.97484°
Mean anomaly351.8661°
Eccentric anomaly335.09°
Mean motion0.55298 °/min
BSTARUnknown
Orbital period651.02 mins
Loading maneuver chart data...
Loading historical data...
Loading historical data...
Loading historical data...
Loading historical data...
Loading historical data...
Loading historical data...
Loading historical data...
Other satellites on launch #9 in the year 2009 (2009-02-26 UTC)

SL-23 DEB Visibility forecast

Observer location: undefined°, undefined

Span
Click to sort rows by Start time (UTC) header in descending order
Start Az.
Max El. time (UTC)
Max El. Az.
Max El.
End time (UTC)
End Az.
13 mins2024-12-14 05:43:10.096Z251.979° W2024-12-14 05:49:10.096Z174.321° S40.393°2024-12-14 05:56:10.096Z95.745° ESE
|